Minot, ND

10:47 AM CST on December 12, 2019 (GMT -0600)
Minot International

Weather History for KMOT - November, 2019

Change the Weather History Date:

Thursday, November 14, 2019

  Actual Average Record
Temperature  
Mean Temperature 34 °F 29 °F  
Max Temperature 48 °F 38 °F 69 °F (1939)
Min Temperature 19 °F 21 °F -20 °F (1940)
Degree Days  
Heating Degree Days 31 36  
Month to date heating degree days 580 450  
Since 1 July heating degree days 1609 1410  
Moisture  
Dew Point 29 °F    
Average Humidity 76    
Maximum Humidity 92    
Minimum Humidity 60    
Precipitation  
Precipitation 0.00 in 0.03 in 0.54 in (1964)
Month to date precipitation 0.30 0.41  
Year to date precipitation 20.74 16.47  
Sea Level Pressure  
Sea Level Pressure 30.14 in    
Wind  
Wind Speed 10 mph (West)    
Max Wind Speed 22 mph    
Max Gust Speed 29 mph    
Visibility 9 miles    
Events      
T = Trace of Precipitation, MM = Missing Value Source: NWS Daily Summary

Daily Weather History Graph

Daily Weather History Graph

Search for Another Location

Airport or City:

Astronomy

Nov. 14, 2019 Rise Set
Actual Time 7:50 AM CST 5:07 PM CST
Civil Twilight 7:16 AM CST 5:41 PM CST
Nautical Twilight 6:38 AM CST 6:19 PM CST
Astronomical Twilight 6:01 AM CST 6:56 PM CST
Moon 6:48 PM CST (11/14) 9:53 AM CST (11/14)
Length of Visible Light 10h 25m
Length of Day
9h 17m
Waning Gibbous, 95% of the Moon is Illuminated
Nov 14
Waning Gibbous
Nov 19
Last Quarter
Nov 26
New
Dec 4
First Quarter
Dec 11
Full

Hourly Weather History & Observations

Time (CST) Temp. Windchill Dew Point Humidity Pressure Visibility Wind Dir Wind Speed Gust Speed Precip Events Conditions
12:54 AM 21.9 °F 12.5 °F 15.1 °F 75% 30.18 in 10.0 mi SSW 8.1 mph - N/A   Overcast
1:54 AM 24.1 °F 14.4 °F 17.1 °F 75% 30.16 in 10.0 mi SSW 9.2 mph - N/A   Overcast
2:54 AM 28.0 °F 18.6 °F 19.9 °F 72% 30.15 in 10.0 mi SSW 10.4 mph - N/A   Overcast
3:54 AM 30.9 °F 21.2 °F 25.0 °F 79% 30.12 in 10.0 mi SSW 12.7 mph - N/A   Overcast
4:54 AM 33.1 °F 23.4 °F 28.0 °F 82% 30.10 in 10.0 mi SW 13.8 mph - N/A   Overcast
5:54 AM 35.1 °F 25.9 °F 28.9 °F 78% 30.11 in 10.0 mi SW 13.8 mph - N/A   Mostly Cloudy
6:54 AM 34.0 °F 23.4 °F 30.0 °F 85% 30.10 in 10.0 mi SW 17.3 mph - N/A   Clear
7:54 AM 34.0 °F 23.4 °F 30.0 °F 85% 30.10 in 10.0 mi SW 17.3 mph 26.5 mph N/A   Clear
8:54 AM 35.1 °F 26.4 °F 30.9 °F 85% 30.12 in 10.0 mi WSW 12.7 mph 24.2 mph N/A   Clear
9:54 AM 37.0 °F 27.4 °F 30.9 °F 79% 30.14 in 10.0 mi WSW 17.3 mph 24.2 mph N/A   Clear
10:54 AM 39.9 °F 31.1 °F 30.9 °F 70% 30.14 in 10.0 mi WSW 17.3 mph 25.3 mph N/A   Clear
11:54 AM 43.0 °F 35.1 °F 32.0 °F 65% 30.14 in 10.0 mi West 17.3 mph 24.2 mph N/A   Clear
12:54 PM 45.0 °F 38.5 °F 33.1 °F 63% 30.12 in 10.0 mi West 13.8 mph - N/A   Clear
1:54 PM 46.9 °F - 33.1 °F 59% 30.12 in 10.0 mi West 15.0 mph - N/A   Clear
2:54 PM 46.9 °F - 33.1 °F 59% 30.12 in 10.0 mi WNW 12.7 mph - N/A   Clear
3:54 PM 44.1 °F 39.0 °F 33.1 °F 65% 30.13 in 10.0 mi NW 9.2 mph - N/A   Clear
4:54 PM 39.0 °F 32.8 °F 30.9 °F 73% 30.15 in 10.0 mi NW 9.2 mph - N/A   Clear
5:54 PM 32.0 °F 24.2 °F 28.9 °F 88% 30.16 in 9.0 mi NNW 9.2 mph - N/A   Clear
6:54 PM 28.0 °F 22.8 °F 26.1 °F 92% 30.19 in 7.0 mi NW 4.6 mph - N/A   Clear
7:04 PM 27.0 °F 21.6 °F 26.1 °F 96% 30.12 in 6.0 mi NNW 4.6 mph - N/A   Scattered Clouds
7:12 PM 28.0 °F 24.2 °F 25.0 °F 88% 30.12 in 7.0 mi NNW 3.5 mph - N/A   Mostly Cloudy
7:54 PM 32.0 °F 28.7 °F 30.0 °F 92% 30.19 in 7.0 mi NW 3.5 mph - N/A   Overcast
8:54 PM 33.1 °F - 30.9 °F 92% 30.20 in 6.0 mi Calm Calm - N/A   Overcast
9:54 PM 33.1 °F - 30.9 °F 92% 30.19 in 6.0 mi Calm Calm - N/A   Overcast
10:54 PM 33.1 °F - 30.9 °F 92% 30.20 in 6.0 mi Calm Calm - N/A   Overcast
11:43 PM 33.1 °F - 30.9 °F 92% 30.14 in 6.0 mi Calm Calm - N/A   Overcast
11:54 PM 33.1 °F - 30.9 °F 92% 30.19 in 6.0 mi Calm Calm - N/A   Overcast